Snowfall_Accumulation
0.0 0.0 0.0 0.1 0.0 0.0 0.4 0.2 0.6 1.0 0.7 1.5 3.4 2.4 4.1 3.2 0.8 0.8 1.1 0.8 1.7 3.0 2.2 1.6 2.2 2.1 0.7 0.8 0.5 0.8 1.2 1.1 1.2 0.5 1.2 1.2 1.0 0.7 1.2 1.1 1.0 1.2 1.1 1.1
0.1 0.0 0.0 0.2 0.0 0.0 0.1 0.1 0.2 0.7 0.3 0.1 0.1 0.1 0.0 0.0 1.3 1.1 0.9 0.6 0.4 0.3 0.2 0.2 0.2 0.3 0.1 0.1 0.1 0.1 0.2 0.3 0.3 0.2 0.3 0.8 1.1 1.2 1.1 1.2 1.6 2.1 2.5 2.9
1.0 0.0 0.9 3.6 1.1 0.5 0.1 0.1 0.1 0.6 0.3 0.2 0.1 0.0 0.0 0.0 0.0 0.1 0.2 0.2 0.2 0.1 0.0 0.1 0.0 0.0 0.0 0.0 0.0 0.0 0.0 0.0 0.0 0.0 0.0 0.0 0.1 0.0 0.1 0.3 0.3 1.0 2.4 3.1
1.4 0.5 5.0 2.4 0.0 0.1 2.0 0.3 1.2 0.2 0.5 0.2 0.1 0.1 0.0 0.0 0.0 0.0 0.0 0.0 0.0 0.1 0.1 0.0 0.0 0.0 0.0 0.0 0.0 0.0 0.0 0.0 0.0 0.0 0.0 0.0 0.0 0.0 0.0 0.0 0.0 0.1 0.3 0.6
2.6 1.8 0.5 0.0 0.0 0.1 0.2 0.5 0.1 0.1 0.1 0.0 0.1 0.0 0.0 0.0 0.0 0.0 0.0 0.0 0.0 0.0 0.0 0.1 0.1 0.0 0.0 0.0 0.0 0.0 0.0 0.1 0.0 0.1 0.0 0.0 0.0 0.0 0.0 0.0 0.0 0.0 0.0 0.1
1.2 0.8 1.9 0.2 0.0 0.0 0.0 2.2 0.0 0.0 0.0 0.0 0.0 0.1 0.1 0.0 0.0 0.0 0.0 0.0 0.0 0.0 0.0 0.2 0.3 0.1 0.3 1.2 0.6 1.0 0.5 0.2 0.0 0.1 0.0 0.0 0.0 0.0 0.0 0.0 0.0 0.0 0.0 0.0
0.5 1.6 0.6 0.0 0.0 0.0 0.8 2.1 0.0 0.0 0.0 0.0 0.0 0.1 0.1 0.0 0.0 0.0 0.0 0.0 0.0 0.0 0.1 0.3 0.9 0.7 2.2 3.3 3.7 2.2 1.3 0.2 0.2 0.1 0.2 0.0 0.0 0.0 0.0 0.0 0.0 0.0 0.0 0.0
1.0 0.9 1.1 0.0 0.0 0.1 2.1 0.0 0.0 0.0 0.0 0.0 0.0 0.0 0.0 0.0 0.0 0.0 0.0 0.1 0.1 0.1 0.1 0.3 0.2 1.2 2.6 3.6 3.3 2.3 3.1 2.9 2.0 1.7 0.7 0.2 0.2 0.2 0.0 0.0 0.1 0.3 0.5 0.8
0.1 1.5 0.0 0.0 0.1 0.0 0.0 0.0 0.0 0.0 0.0 0.0 0.0 0.0 0.0 0.0 0.0 0.1 0.2 1.0 0.4 0.4 0.3 0.2 0.2 0.7 1.9 2.7 1.8 2.6 3.2 5.1 4.9 3.8 4.8 2.6 2.3 2.6 3.0 1.2 2.1 2.7 4.1 5.1
0.1 0.0 0.0 0.0 0.0 0.0 0.0 0.0 0.0 0.0 0.0 0.0 0.0 0.0 0.0 0.0 0.0 0.1 1.1 1.3 0.8 0.7 1.2 1.4 0.6 0.3 0.6 0.3 0.2 0.7 2.1 2.3 3.4 5.2 4.6 5.3 5.2 5.5 6.4 7.5 8.0 8.7 8.9 11.1
0.2 0.1 0.0 0.0 0.0 0.0 0.0 0.0 0.0 0.0 0.0 0.0 0.0 0.0 0.0 0.0 0.0 0.0 0.4 0.3 0.8 1.9 2.0 1.7 0.9 0.3 0.2 0.2 0.2 0.3 0.5 0.6 0.8 1.5 3.6 4.9 6.6 11.0 10.0 11.0 12.2 13.9 13.3 12.4
4.2 0.3 0.1 0.1 0.1 0.0 0.1 0.0 0.0 0.0 0.0 0.0 0.0 0.0 0.0 0.0 0.0 0.0 0.0 0.0 0.0 0.2 0.3 0.3 0.1 0.1 0.1 0.1 0.3 0.1 0.2 0.8 1.6 1.5 2.5 3.7 5.3 6.7 nan nan nan nan nan 9.8
1.1 0.1 0.1 0.1 0.1 0.0 0.1 0.1 0.0 0.0 0.0 0.0 0.0 0.0 0.0 0.0 0.0 nan 0.0 0.0 0.1 1.4 0.9 1.9 3.6 2.8 0.6 0.2 0.2 1.5 2.0 1.4 2.1 2.0 3.3 4.3 4.7 6.2 11.6 12.4 nan nan nan nan
0.0 0.0 0.2 0.1 1.1 0.1 0.1 0.1 0.0 0.0 0.1 0.0 0.0 0.0 0.0 0.0 0.0 0.0 0.1 0.1 0.0 0.1 0.2 0.3 0.7 4.3 5.0 3.9 3.5 6.0 6.5 1.1 6.1 7.7 8.4 9.5 10.2 11.8 11.6 13.7 16.5 16.3 nan nan
0.0 0.0 0.1 0.1 0.1 0.1 0.1 0.0 0.1 0.1 0.1 0.1 0.1 0.1 0.0 0.1 0.0 0.1 0.1 0.0 0.0 0.1 0.2 0.2 0.6 2.1 1.5 0.5 0.9 1.8 2.6 4.8 5.7 6.0 5.2 4.3 4.2 4.7 4.9 5.5 8.0 10.3 8.6 4.6
0.0 0.0 0.0 0.1 0.1 0.1 0.1 0.1 0.0 0.1 0.1 0.0 0.0 0.1 0.0 0.0 0.1 0.1 0.1 0.1 0.4 1.6 0.8 4.2 1.3 3.3 2.4 1.8 2.1 2.1 2.7 1.8 2.3 3.7 3.8 3.6 3.1 3.4 3.2 3.4 3.3 4.6 5.4 7.3
0.0 0.1 0.0 0.0 0.0 0.0 0.0 0.0 0.0 0.0 0.0 0.0 0.0 0.0 0.0 0.0 0.0 0.2 0.7 0.8 2.5 4.2 4.6 2.9 7.5 6.5 5.2 4.7 3.1 4.4 3.7 3.1 1.1 2.3 2.5 2.4 3.0 3.2 2.9 3.8 4.5 3.7 6.7 9.3
0.0 0.0 0.0 0.0 0.0 0.0 0.0 0.0 0.0 0.0 0.0 0.1 0.4 2.5 3.9 3.6 1.4 2.2 2.8 2.4 3.7 6.3 6.1 7.4 6.7 6.2 5.7 4.3 2.5 1.8 2.1 1.9 1.8 3.0 2.4 4.0 3.0 2.1 3.3 2.8 2.7 3.7 5.2 4.5
0.0 0.0 0.0 0.0 0.0 0.0 0.0 0.0 0.0 0.1 2.4 2.6 5.7 6.6 6.9 7.8 6.9 9.7 10.0 12.1 13.4 8.6 13.5 8.4 2.2 3.3 3.6 3.7 0.4 1.4 2.1 3.5 2.2 1.9 2.3 5.9 6.0 2.6 5.0 6.3 4.9 6.8 4.2 4.7
0.1 0.0 0.1 0.4 0.9 0.9 2.4 3.3 4.4 5.8 6.6 5.5 10.3 12.4 11.8 15.7 14.2 15.0 11.1 11.3 11.2 12.0 7.1 5.2 3.1 1.9 1.8 0.7 1.5 1.1 2.2 4.7 2.5 5.0 6.4 3.1 8.5 12.4 8.2 7.1 7.0 8.5 14.9 11.7
2.5 3.2 3.8 4.1 7.2 8.2 10.3 11.6 10.0 8.8 11.5 13.2 13.4 15.6 15.7 13.5 12.0 12.9 8.9 4.5 9.3 5.5 2.6 0.8 1.0 1.1 0.5 0.4 0.5 2.9 5.2 7.9 8.3 5.7 5.9 12.2 16.0 12.8 13.1 14.0 13.1 15.5 18.3 14.3
3.9 4.6 6.9 6.1 4.5 6.3 7.3 7.3 5.2 8.7 9.7 12.8 16.6 18.0 14.3 9.7 10.3 8.7 9.7 4.9 3.5 2.7 1.6 1.5 0.9 3.0 2.0 4.6 1.3 6.8 3.3 3.8 6.2 6.4 7.4 11.2 12.5 18.6 19.6 16.9 16.5 18.1 17.7 18.3
4.2 3.8 4.2 5.1 4.8 5.5 4.7 4.9 9.6 7.8 11.9 11.7 13.1 9.8 6.5 3.9 3.4 4.4 5.0 0.9 0.7 3.2 0.7 2.3 4.4 5.2 5.5 8.3 8.3 9.7 9.9 10.3 10.3 9.2 9.9 15.2 14.6 24.0 14.6 14.1 15.7 15.9 21.4 14.5
4.0 3.7 4.3 4.1 3.7 2.0 2.9 6.0 3.5 4.1 9.5 6.5 8.1 10.6 4.5 8.2 8.7 1.0 0.9 5.3 5.5 13.4 10.9 6.0 8.1 5.8 6.4 11.7 12.1 13.7 12.6 14.1 14.6 17.0 8.4 8.9 22.9 18.0 14.4 21.2 13.6 16.3 17.3 14.9
4.4 4.7 4.3 4.9 3.1 4.8 3.0 3.3 2.7 2.9 2.5 1.8 1.7 0.9 0.5 0.9 6.1 2.8 4.5 4.4 6.1 4.3 6.0 6.3 6.3 7.1 14.9 15.8 15.2 15.9 15.9 14.6 16.3 18.8 13.9 19.3 17.5 25.3 22.3 18.3 22.4 21.8 22.0 18.5
3.8 3.5 3.7 3.8 2.6 2.0 1.9 1.7 2.5 2.4 1.6 4.5 2.4 10.2 7.1 3.7 3.1 3.0 4.9 5.9 3.8 5.7 4.5 12.0 17.5 17.7 16.6 12.5 14.4 15.0 11.9 8.7 13.2 13.5 16.2 15.6 14.9 12.2 16.0 14.9 20.8 24.6 29.0 30.2
3.3 1.3 2.1 2.0 1.5 1.4 1.2 0.8 2.3 3.1 4.1 7.6 6.7 6.4 4.1 7.6 9.3 6.2 8.0 11.5 11.3 12.8 12.9 15.7 13.9 10.3 9.1 14.5 12.5 11.6 11.4 11.7 10.5 10.2 20.3 22.4 21.3 27.7 25.5 25.4 28.6 28.9 25.9 23.6
Water_Equivalent
0.00 0.00 0.01 0.03 0.00 0.01 0.07 0.03 0.10 0.19 0.14 0.33 1.08 0.65 1.17 0.94 0.21 0.21 0.31 0.17 0.34 0.60 0.41 0.42 0.75 0.62 0.18 0.23 0.12 0.26 0.44 0.25 0.25 0.14 0.33 0.24 0.18 0.15 0.33 0.28 0.23 0.26 0.26 0.27
0.01 0.00 0.00 0.04 0.01 0.00 0.02 0.02 0.04 0.13 0.05 0.04 0.03 0.02 0.00 0.01 0.34 0.29 0.25 0.14 0.09 0.07 0.06 0.04 0.04 0.12 0.03 0.02 0.04 0.03 0.06 0.07 0.09 0.06 0.05 0.17 0.19 0.20 0.17 0.24 0.32 0.34 0.38 0.53
0.13 0.00 0.15 0.53 0.23 0.12 0.03 0.02 0.03 0.11 0.06 0.06 0.02 0.00 0.00 0.00 0.00 0.02 0.04 0.04 0.03 0.01 0.01 0.02 0.00 0.00 0.00 0.00 0.00 0.00 0.01 0.01 0.00 0.01 0.01 0.00 0.02 0.02 0.02 0.06 0.09 0.21 0.48 0.55
0.25 0.07 0.63 0.47 0.01 0.03 0.54 0.07 0.32 0.06 0.12 0.05 0.02 0.02 0.00 0.00 0.00 0.00 0.00 0.00 0.00 0.02 0.01 0.00 0.00 0.00 0.00 0.00 0.00 0.00 0.00 0.00 0.00 0.00 0.00 0.00 0.00 0.00 0.00 0.00 0.00 0.01 0.06 0.12
0.47 0.28 0.10 0.01 0.00 0.02 0.05 0.08 0.02 0.03 0.01 0.00 0.02 0.00 0.01 0.00 0.00 0.00 0.00 0.00 0.01 0.00 0.00 0.02 0.02 0.00 0.00 0.00 0.00 0.00 0.00 0.01 0.00 0.01 0.00 0.00 0.00 0.00 0.00 0.00 0.00 0.00 0.00 0.01
0.21 0.10 0.31 0.03 0.00 0.00 0.00 0.45 0.01 0.00 0.01 0.00 0.00 0.01 0.02 0.00 0.00 0.00 0.00 0.00 0.00 0.00 0.00 0.05 0.11 0.02 0.10 0.39 0.15 0.19 0.09 0.03 0.00 0.01 0.00 0.00 0.00 0.00 0.00 0.00 0.00 0.00 0.00 0.00
0.11 0.26 0.11 0.00 0.00 0.00 0.17 0.39 0.01 0.00 0.01 0.00 0.01 0.01 0.02 0.00 0.00 0.00 0.00 0.00 0.00 0.00 0.03 0.08 0.33 0.24 0.75 1.10 1.06 0.66 0.40 0.05 0.04 0.01 0.03 0.00 0.00 0.00 0.00 0.00 0.00 0.00 0.00 0.00
0.18 0.16 0.19 0.00 0.00 0.02 0.48 0.01 0.00 0.00 0.01 0.00 0.01 0.01 0.00 0.00 0.00 0.00 0.01 0.03 0.02 0.02 0.02 0.06 0.06 0.36 0.74 0.94 1.04 0.77 1.03 0.80 0.45 0.39 0.15 0.03 0.05 0.05 0.01 0.01 0.02 0.06 0.11 0.20
0.03 0.29 0.01 0.00 0.01 0.00 0.00 0.00 0.01 0.00 0.00 0.00 0.00 0.00 0.00 0.00 0.00 0.02 0.07 0.25 0.09 0.09 0.05 0.03 0.05 0.16 0.38 0.70 0.54 0.74 0.82 1.17 1.17 0.89 1.14 0.55 0.46 0.50 0.55 0.21 0.40 0.48 0.74 0.93
0.02 0.01 0.00 0.00 0.00 0.00 0.00 0.00 0.00 0.00 0.00 0.00 0.00 0.00 0.00 0.00 0.00 0.02 0.26 0.27 0.16 0.14 0.19 0.20 0.11 0.06 0.11 0.07 0.04 0.16 0.49 0.48 0.72 1.04 1.02 1.26 1.30 1.22 1.22 1.23 1.31 1.56 1.56 1.80
0.05 0.04 0.01 0.01 0.01 0.01 0.00 0.00 0.00 0.00 0.00 0.00 0.00 0.00 0.00 0.00 0.00 0.00 0.08 0.06 0.18 0.27 0.26 0.24 0.15 0.06 0.03 0.04 0.03 0.06 0.11 0.12 0.14 0.28 0.64 0.98 1.46 2.25 2.17 2.40 2.22 2.28 2.19 2.10
1.00 0.08 0.03 0.03 0.02 0.01 0.02 0.00 0.00 0.00 0.00 0.00 0.00 0.00 0.00 0.00 0.00 0.00 0.00 0.00 0.01 0.04 0.05 0.05 0.02 0.02 0.02 0.02 0.04 0.02 0.05 0.15 0.31 0.29 0.45 0.66 0.96 1.25 nan nan nan nan nan 2.30
0.28 0.04 0.02 0.03 0.02 0.01 0.03 0.02 0.00 0.00 0.00 0.00 0.00 0.00 0.00 0.00 0.00 nan 0.00 0.00 0.01 0.26 0.17 0.30 0.60 0.45 0.12 0.04 0.03 0.29 0.35 0.29 0.50 0.45 0.64 0.75 0.79 0.98 1.69 2.28 nan nan nan nan
0.01 0.01 0.05 0.03 0.22 0.02 0.02 0.02 0.01 0.01 0.01 0.01 0.01 0.00 0.00 0.00 0.00 0.00 0.01 0.01 0.01 0.01 0.03 0.05 0.13 0.64 0.89 0.77 0.72 1.11 1.21 0.38 1.36 1.68 1.75 1.92 2.00 2.15 1.98 2.13 2.34 2.17 nan nan
0.01 0.01 0.02 0.02 0.02 0.02 0.01 0.01 0.01 0.02 0.02 0.02 0.01 0.01 0.00 0.01 0.01 0.01 0.01 0.00 0.00 0.02 0.03 0.04 0.11 0.29 0.26 0.11 0.18 0.35 0.55 0.90 1.01 1.04 0.96 0.83 0.85 0.88 0.89 0.93 1.16 1.26 1.05 0.83
0.00 0.00 0.00 0.02 0.02 0.02 0.02 0.02 0.01 0.01 0.01 0.00 0.00 0.02 0.00 0.00 0.02 0.02 0.02 0.02 0.06 0.18 0.11 0.71 0.17 0.42 0.39 0.35 0.39 0.39 0.52 0.53 0.50 0.69 0.71 0.69 0.61 0.64 0.55 0.57 0.52 0.66 0.69 0.87
0.01 0.01 0.00 0.00 0.00 0.00 0.00 0.00 0.00 0.00 0.00 0.00 0.00 0.00 0.00 0.00 0.01 0.02 0.09 0.11 0.36 0.59 0.59 0.35 0.85 0.79 0.65 0.64 0.49 0.71 0.59 0.55 0.37 0.43 0.46 0.43 0.54 0.54 0.46 0.59 0.67 0.55 0.96 1.50
0.00 0.00 0.00 0.00 0.00 0.00 0.00 0.00 0.00 0.00 0.00 0.01 0.07 0.48 0.72 0.63 0.16 0.23 0.30 0.29 0.51 0.78 0.65 0.79 0.74 0.72 0.66 0.55 0.34 0.32 0.37 0.35 0.36 0.54 0.44 0.71 0.51 0.39 0.55 0.48 0.46 0.58 0.79 0.74
0.00 0.01 0.01 0.00 0.00 0.00 0.00 0.00 0.01 0.01 0.42 0.41 0.93 0.90 0.97 1.10 0.76 1.01 1.06 1.58 1.76 0.90 1.36 0.88 0.74 0.50 0.38 0.42 0.07 0.27 0.43 0.76 0.46 0.34 0.41 1.84 1.05 0.47 0.82 1.06 0.82 1.11 0.67 0.70
0.01 0.00 0.02 0.07 0.15 0.15 0.31 0.42 0.62 0.73 0.81 0.71 1.48 1.73 1.34 1.92 1.77 1.92 1.35 1.18 1.03 1.16 0.69 0.51 0.32 0.21 0.20 0.13 0.47 0.22 0.48 1.03 0.52 1.00 1.24 0.60 1.48 2.10 1.31 2.27 1.08 1.38 2.49 1.87
0.41 0.52 0.56 0.57 0.93 1.21 1.54 1.69 1.30 0.96 1.26 1.69 1.81 2.09 1.97 1.60 1.54 1.81 1.10 0.55 0.80 0.51 0.26 0.26 0.15 0.18 0.08 0.07 0.12 0.63 1.13 1.65 1.70 1.09 1.12 2.28 2.97 2.22 2.14 2.50 2.30 2.76 3.14 2.39
0.54 0.59 0.94 0.79 0.53 0.70 0.86 0.83 0.57 1.08 1.15 1.64 2.27 2.49 1.94 0.99 1.23 1.05 1.29 0.51 0.41 0.89 0.28 0.26 0.16 0.98 0.64 1.52 0.31 1.54 0.72 0.85 1.22 1.21 1.37 2.15 2.20 3.16 3.19 2.75 2.65 3.08 3.10 3.20
0.52 0.46 0.51 0.63 0.58 0.56 0.50 0.54 1.29 1.08 1.63 1.56 1.80 1.27 0.86 0.52 0.46 0.66 0.69 0.09 0.15 1.01 0.17 0.53 1.41 1.72 1.83 1.89 1.86 2.12 2.08 2.06 2.01 1.73 1.85 2.80 2.56 4.04 2.11 2.07 2.42 2.50 3.58 2.34
0.46 0.41 0.47 0.44 0.40 0.20 0.29 0.56 0.32 0.37 1.31 0.80 1.06 1.50 0.59 1.23 1.66 0.20 0.20 1.75 1.80 3.65 2.61 1.40 2.16 1.92 2.10 2.48 2.37 2.68 2.44 2.64 2.59 2.85 1.38 2.77 3.96 2.78 2.15 3.17 1.87 2.45 2.70 2.35
0.50 0.54 0.48 0.56 0.31 0.52 0.28 0.31 0.25 0.27 0.23 0.20 0.17 0.10 0.08 0.21 1.23 0.58 1.05 1.03 1.96 1.17 1.39 1.99 2.07 2.35 2.98 3.10 2.80 2.78 2.72 2.32 2.59 3.01 2.10 3.20 2.88 4.18 3.58 2.64 3.06 3.25 3.22 2.82
0.40 0.48 0.47 0.36 0.33 0.29 0.28 0.26 0.34 0.36 0.28 0.84 0.47 2.02 1.45 0.78 0.68 0.65 1.02 1.67 0.80 1.81 0.95 2.62 3.52 3.50 3.23 2.22 2.54 2.57 1.90 1.36 1.97 1.93 2.27 2.22 2.19 1.75 2.19 2.01 2.81 3.61 4.50 4.93
0.43 0.32 0.32 0.29 0.23 0.23 0.21 0.17 0.46 0.57 0.96 1.49 1.25 1.28 0.79 1.41 1.81 1.46 2.29 2.26 2.21 2.50 2.55 3.18 2.74 2.68 1.57 2.59 2.12 1.83 1.70 1.77 2.74 1.40 2.58 3.02 2.84 3.97 3.50 3.57 4.14 4.59 3.82 3.27
SL_Ratio
5.0 nan 3.3 3.8 5.0 3.9 5.4 5.0 6.4 5.4 5.1 4.6 3.2 3.7 3.5 3.4 3.7 3.7 3.7 4.6 4.9 4.9 5.4 3.9 2.9 3.4 4.0 3.7 4.2 3.2 2.8 4.4 4.8 3.5 3.7 4.9 5.8 5.0 3.7 3.8 4.5 4.7 4.4 4.2
5.8 nan 3.6 4.9 3.7 nan 4.2 4.2 5.0 5.1 5.5 3.5 3.7 4.0 4.7 4.2 3.7 3.7 3.7 4.4 4.7 4.6 4.3 4.8 4.6 2.9 3.0 2.7 3.2 3.4 3.6 4.6 3.3 3.7 5.0 4.7 5.6 6.3 6.3 5.0 5.0 6.3 6.5 5.5
7.9 0.0 5.6 6.8 4.9 4.4 3.9 3.8 4.3 5.4 4.8 3.9 4.4 nan nan nan 5.0 4.6 5.0 4.8 5.0 5.0 5.0 5.0 6.0 6.3 6.7 5.7 nan 4.0 4.3 3.9 5.4 3.0 2.8 3.8 2.8 2.8 4.7 4.3 3.4 4.7 4.9 5.7
5.6 6.2 8.0 5.1 3.0 3.5 3.7 3.8 3.9 4.2 4.3 4.2 4.3 4.7 nan nan nan nan nan nan 5.0 5.6 5.4 6.0 10.0 10.0 nan nan nan nan 10.0 10.0 10.0 5.7 0.0 nan nan 0.0 nan nan 5.0 5.3 4.9 4.9
5.5 6.2 5.3 3.3 nan 4.9 4.7 5.5 3.7 4.2 3.8 3.8 4.2 4.0 5.0 nan nan 0.0 nan 5.0 5.2 5.7 nan 3.9 4.4 nan 3.3 6.7 nan 10.0 7.3 6.9 7.7 6.8 nan nan nan 0.0 nan nan nan nan 7.1 7.1
5.6 8.2 6.1 5.2 nan nan 3.8 4.9 2.8 nan 4.0 5.0 nan 7.2 6.1 0.0 nan nan nan nan nan nan 4.0 3.4 3.1 3.6 2.6 3.1 4.0 5.2 5.4 5.6 8.3 6.8 0.0 nan nan nan nan nan nan nan nan 7.5
4.9 6.3 5.2 0.0 nan nan 4.4 5.5 3.8 nan 4.2 3.3 5.4 5.1 4.6 nan nan nan nan nan nan nan 4.0 4.2 2.8 2.8 2.9 3.0 3.5 3.3 3.4 4.0 4.3 4.6 6.6 nan nan nan nan nan nan nan 3.3 5.0
5.5 5.5 5.8 nan nan 5.0 4.4 4.4 nan nan 4.7 4.6 4.8 4.8 nan nan nan nan 3.8 3.9 3.8 4.6 4.9 4.3 4.1 3.4 3.5 3.8 3.2 3.0 3.0 3.6 4.5 4.4 4.6 5.0 4.7 4.8 4.5 5.0 5.0 4.7 4.6 4.2
4.5 5.2 3.3 nan 3.8 5.0 0.0 5.0 4.6 nan nan nan nan nan nan nan nan 3.8 3.7 4.1 4.1 4.8 5.2 5.0 4.8 4.5 5.1 3.9 3.4 3.5 3.9 4.4 4.1 4.2 4.2 4.6 5.1 5.2 5.4 5.6 5.3 5.6 5.6 5.5
4.4 3.5 nan nan nan nan nan nan nan nan nan nan nan nan nan nan nan 3.3 4.3 4.7 4.8 5.4 6.3 6.8 5.6 5.1 5.3 5.0 4.3 4.1 4.4 4.8 4.7 5.0 4.5 4.2 4.0 4.5 5.3 6.2 6.1 5.6 5.7 6.2
4.1 3.8 3.4 3.5 3.3 3.3 3.3 nan nan nan nan nan nan nan nan nan nan nan 4.8 4.6 4.8 7.0 7.7 7.1 5.7 5.4 5.1 5.0 5.4 5.1 4.7 5.2 5.7 5.2 5.6 5.1 4.5 4.9 4.6 4.6 5.5 6.1 6.1 5.9
4.2 3.8 3.8 4.0 3.5 2.9 4.1 2.5 nan nan nan nan nan nan nan nan nan nan nan nan 4.7 5.4 5.8 5.9 5.7 5.7 5.3 5.1 6.7 5.1 5.4 5.3 5.1 5.1 5.5 5.6 5.5 5.3 nan nan nan nan nan 4.2
4.0 2.8 3.5 3.5 3.3 3.2 3.9 4.2 nan nan nan 4.0 10.0 nan nan nan nan nan nan nan 4.7 5.4 5.2 6.2 6.0 6.1 5.1 4.9 5.2 5.1 5.7 4.9 4.3 4.5 5.1 5.7 5.9 6.3 6.8 5.4 nan nan nan nan
3.0 3.3 4.5 4.1 4.8 3.7 3.7 4.3 3.8 4.7 5.2 5.0 5.2 5.7 nan nan nan nan 6.7 6.1 4.7 6.2 5.3 5.2 5.3 6.6 5.6 5.1 4.9 5.4 5.4 3.0 4.5 4.6 4.8 5.0 5.1 5.5 5.9 6.5 7.1 7.5 nan nan
3.3 3.2 4.3 4.2 4.2 4.4 4.3 4.5 5.4 5.8 6.0 5.9 5.9 6.1 6.9 6.7 6.8 6.9 6.3 5.8 5.6 5.6 5.7 5.4 5.5 7.2 5.6 4.8 5.1 5.1 4.6 5.4 5.6 5.8 5.4 5.2 5.0 5.3 5.6 5.9 6.8 8.2 8.2 5.6
nan nan nan 4.8 4.6 5.1 5.3 5.4 5.8 6.4 6.4 6.3 6.7 6.5 6.7 6.3 6.5 6.4 6.0 6.3 6.3 8.9 7.8 5.9 7.4 8.0 6.4 5.3 5.4 5.4 5.2 3.4 4.6 5.4 5.3 5.2 5.1 5.3 5.8 5.9 6.3 7.0 7.9 8.3
5.3 5.8 nan 5.6 4.5 nan nan nan nan nan nan nan nan nan nan 6.7 5.7 6.7 7.7 8.0 6.9 7.1 7.8 8.4 8.8 8.3 8.0 7.2 6.4 6.2 6.3 5.7 3.0 5.4 5.5 5.5 5.6 6.0 6.3 6.4 6.7 6.8 7.0 6.2
nan nan nan nan nan nan nan nan nan nan 6.4 5.9 5.8 5.2 5.4 5.7 8.7 9.6 9.3 8.4 7.4 8.1 9.4 9.3 9.1 8.6 8.6 7.9 7.1 5.6 5.6 5.4 5.1 5.6 5.4 5.7 5.8 5.3 5.9 5.8 5.8 6.4 6.5 6.2
3.3 3.8 3.4 5.0 5.0 nan nan 6.7 6.1 6.2 5.6 6.3 6.1 7.3 7.1 7.1 9.0 9.6 9.4 7.6 7.6 9.6 10.0 9.5 3.0 6.6 9.5 8.7 5.4 5.1 5.0 4.7 4.9 5.8 5.5 3.2 5.7 5.5 6.2 6.0 5.9 6.1 6.3 6.7
4.5 4.6 4.7 5.5 5.8 6.5 7.8 7.9 7.1 8.0 8.1 7.7 7.0 7.2 8.8 8.2 8.0 7.8 8.3 9.6 10.9 10.3 10.3 10.3 9.9 9.2 9.1 5.0 3.3 5.2 4.7 4.6 4.8 5.0 5.2 5.3 5.8 5.9 6.2 3.1 6.5 6.2 6.0 6.3
6.0 6.1 6.8 7.2 7.7 6.8 6.7 6.9 7.7 9.2 9.1 7.8 7.4 7.5 8.0 8.4 7.8 7.1 8.1 8.2 11.6 10.7 9.8 3.3 6.8 6.4 5.9 5.3 4.1 4.6 4.6 4.8 4.9 5.2 5.3 5.3 5.4 5.8 6.1 5.6 5.7 5.6 5.8 6.0
7.2 7.8 7.4 7.7 8.3 8.9 8.5 8.8 9.1 8.0 8.4 7.8 7.3 7.2 7.4 9.8 8.4 8.3 7.6 9.7 8.5 3.0 5.7 5.7 5.7 3.1 3.2 3.0 4.2 4.4 4.5 4.5 5.1 5.3 5.4 5.2 5.7 5.9 6.1 6.2 6.2 5.9 5.7 5.7
8.2 8.4 8.4 8.2 8.2 10.0 9.5 9.2 7.5 7.2 7.3 7.5 7.3 7.8 7.5 7.6 7.3 6.8 7.3 10.4 5.0 3.2 4.0 4.4 3.1 3.0 3.0 4.4 4.5 4.6 4.8 5.0 5.1 5.3 5.3 5.4 5.7 5.9 6.9 6.8 6.5 6.3 6.0 6.2
8.7 8.9 9.3 9.2 9.3 9.9 9.9 10.8 10.8 10.9 7.2 8.2 7.7 7.0 7.8 6.7 5.3 5.1 4.6 3.0 3.0 3.7 4.2 4.3 3.8 3.0 3.0 4.7 5.1 5.1 5.1 5.3 5.6 6.0 6.1 3.2 5.8 6.5 6.7 6.7 7.3 6.7 6.4 6.3
8.8 8.7 8.9 8.8 10.1 9.1 10.8 10.8 10.7 10.9 11.1 9.1 10.2 9.3 6.0 4.2 4.9 4.8 4.3 4.2 3.1 3.6 4.3 3.2 3.0 3.0 5.0 5.1 5.4 5.7 5.8 6.3 6.3 6.2 6.6 6.0 6.1 6.0 6.2 7.0 7.3 6.7 6.8 6.6
9.5 7.2 7.9 10.3 7.8 6.8 6.7 6.6 7.3 6.9 5.6 5.4 5.2 5.1 4.9 4.7 4.5 4.7 4.8 3.5 4.8 3.2 4.7 4.6 5.0 5.1 5.2 5.6 5.7 5.8 6.3 6.4 6.7 7.0 7.1 7.0 6.8 7.0 7.3 7.4 7.4 6.8 6.4 6.1
7.7 4.1 6.6 6.7 6.6 6.2 5.9 5.0 5.1 5.4 4.2 5.1 5.4 5.0 5.3 5.4 5.2 4.2 3.5 5.1 5.1 5.1 5.1 4.9 5.1 3.8 5.8 5.6 5.9 6.3 6.7 6.6 3.8 7.3 7.9 7.4 7.5 7.0 7.3 7.1 6.9 6.3 6.8 7.2